Time,TemperatureF,DewpointF,PressureIn,WindDirection,WindDirectionDegrees,WindSpeedMPH,WindSpeedGustMPH,Humidity,HourlyPrecipIn,Conditions,Clouds,dailyrainin,SoftwareType,DateUTC
2013-01-06 09:51:00,45.2,33.0,30.10,North,0,0.0,0.0,62,0.00,SCT,,0.00,WeatherDisplay:10.37,2013-01-06 17:51:00,
2013-01-06 10:03:00,45.0,32.3,30.10,North,0,0.0,0.0,61,0.00,SCT,,0.00,WeatherDisplay:10.37,2013-01-06 18:03:00,
2013-01-06 10:06:00,44.8,32.1,30.10,North,0,0.0,0.0,61,0.00,SCT,,0.00,WeatherDisplay:10.37,2013-01-06 18:06:00,
2013-01-06 10:11:00,44.6,32.8,30.10,North,0,0.0,0.0,63,0.00,SCT,,0.00,WeatherDisplay:10.37,2013-01-06 18:11:00,
2013-01-06 10:21:00,43.7,31.9,30.09,North,0,0.0,0.0,63,0.00,BKN,,0.00,WeatherDisplay:10.37,2013-01-06 18:21:00,
2013-01-06 10:26:00,43.5,31.8,30.09,North,0,0.0,0.0,63,0.00,BKN,,0.00,WeatherDisplay:10.37,2013-01-06 18:26:00,
2013-01-06 10:36:00,43.6,32.6,30.09,North,0,0.0,0.0,65,0.00,BKN,,0.00,WeatherDisplay:10.37,2013-01-06 18:36:00,
2013-01-06 10:41:00,43.5,33.3,30.09,North,0,0.0,0.0,67,0.00,BKN,,0.00,WeatherDisplay:10.37,2013-01-06 18:41:00,
2013-01-06 10:51:00,43.5,33.7,30.09,North,0,0.0,0.0,68,0.00,BKN,,0.00,WeatherDisplay:10.37,2013-01-06 18:51:00,
2013-01-06 10:56:00,43.2,33.7,30.08,North,0,0.0,0.0,69,0.00,BKN,,0.00,WeatherDisplay:10.37,2013-01-06 18:56:00,
2013-01-06 11:06:00,42.8,34.0,30.07,North,0,0.0,0.0,71,0.00,BKN,,0.00,WeatherDisplay:10.37,2013-01-06 19:06:00,
2013-01-06 11:11:00,43.5,33.6,30.07,North,0,0.0,0.0,68,0.00,BKN,,0.00,WeatherDisplay:10.37,2013-01-06 19:11:00,
2013-01-06 11:21:00,44.4,31.4,30.06,North,0,0.0,0.0,60,0.00,BKN,,0.00,WeatherDisplay:10.37,2013-01-06 19:21:00,
2013-01-06 11:36:00,46.4,32.0,30.05,North,0,0.0,0.0,57,0.00,BKN,,0.00,WeatherDisplay:10.37,2013-01-06 19:36:00,
2013-01-06 11:51:00,46.4,32.8,30.05,North,0,0.0,0.0,59,0.00,BKN,,0.00,WeatherDisplay:10.37,2013-01-06 19:51:00,
2013-01-06 12:06:00,44.4,32.2,30.04,North,0,0.0,0.0,62,0.00,BKN,,0.00,WeatherDisplay:10.37,2013-01-06 20:06:00,
2013-01-06 12:21:00,44.8,33.7,30.04,North,0,0.0,0.0,65,0.00,BKN,,0.00,WeatherDisplay:10.37,2013-01-06 20:21:00,
2013-01-06 12:26:00,45.3,33.9,30.04,North,0,0.0,0.0,64,0.00,BKN,,0.00,WeatherDisplay:10.37,2013-01-06 20:26:00,
2013-01-06 12:36:00,44.4,33.8,30.04,North,0,0.0,0.0,66,0.00,BKN,,0.00,WeatherDisplay:10.37,2013-01-06 20:36:00,
2013-01-06 12:41:00,44.2,34.0,30.04,North,0,0.0,0.0,67,0.00,BKN,,0.00,WeatherDisplay:10.37,2013-01-06 20:41:00,
2013-01-06 12:51:00,44.2,34.0,30.03,North,0,0.0,0.0,67,0.00,BKN,,0.00,WeatherDisplay:10.37,2013-01-06 20:51:00,
2013-01-06 12:56:00,44.1,33.8,30.03,North,0,0.0,0.0,67,0.00,BKN,,0.00,WeatherDisplay:10.37,2013-01-06 20:56:00,
2013-01-06 13:06:00,44.2,33.6,30.03,North,0,0.0,0.0,66,0.00,BKN,,0.00,WeatherDisplay:10.37,2013-01-06 21:06:00,
2013-01-06 13:11:00,43.9,33.3,30.03,North,0,0.0,0.0,66,0.00,BKN,,0.00,WeatherDisplay:10.37,2013-01-06 21:11:00,
2013-01-06 13:21:00,43.7,33.5,30.02,North,0,0.0,0.0,67,0.00,BKN,,0.00,WeatherDisplay:10.37,2013-01-06 21:21:00,
2013-01-06 13:36:00,45.7,33.8,30.02,North,0,0.0,0.0,63,0.00,BKN,,0.00,WeatherDisplay:10.37,2013-01-06 21:36:00,
2013-01-06 13:41:00,45.2,33.3,30.02,North,0,0.0,0.0,63,0.00,BKN,,0.00,WeatherDisplay:10.37,2013-01-06 21:41:00,
2013-01-06 13:51:00,44.6,33.9,30.02,North,0,0.0,0.0,66,0.00,BKN,,0.00,WeatherDisplay:10.37,2013-01-06 21:51:00,
2013-01-06 13:56:00,44.8,34.1,30.02,North,0,0.0,0.0,66,0.00,BKN,,0.00,WeatherDisplay:10.37,2013-01-06 21:56:00,
2013-01-06 14:06:00,44.8,33.3,30.01,North,0,0.0,0.0,64,0.00,BKN,,0.00,WeatherDisplay:10.37,2013-01-06 22:06:00,
2013-01-06 14:11:00,44.8,33.3,30.01,North,0,0.0,0.0,64,0.00,BKN,,0.00,WeatherDisplay:10.37,2013-01-06 22:11:00,
2013-01-06 14:21:00,44.8,33.7,30.01,North,0,0.0,0.0,65,0.00,BKN,,0.00,WeatherDisplay:10.37,2013-01-06 22:21:00,
2013-01-06 14:26:00,45.0,33.9,30.01,North,0,0.0,0.0,65,0.00,BKN,,0.00,WeatherDisplay:10.37,2013-01-06 22:26:00,
2013-01-06 14:36:00,45.7,35.0,30.01,North,0,0.0,0.0,66,0.00,BKN,,0.00,WeatherDisplay:10.37,2013-01-06 22:36:00,
2013-01-06 14:41:00,46.0,35.3,30.01,North,0,0.0,0.0,66,0.00,BKN,,0.00,WeatherDisplay:10.37,2013-01-06 22:41:00,
2013-01-06 14:51:00,46.6,34.7,30.01,North,0,0.0,0.0,63,0.00,BKN,,0.00,WeatherDisplay:10.37,2013-01-06 22:51:00,
2013-01-06 14:56:00,46.2,34.3,30.01,North,0,0.0,0.0,63,0.00,BKN,,0.00,WeatherDisplay:10.37,2013-01-06 22:56:00,
2013-01-06 15:06:00,46.1,33.8,30.01,North,0,0.0,0.0,62,0.00,BKN,,0.00,WeatherDisplay:10.37,2013-01-06 23:06:00,
2013-01-06 15:11:00,46.0,34.1,30.00,North,0,0.0,0.0,63,0.00,BKN,,0.00,WeatherDisplay:10.37,2013-01-06 23:11:00,
2013-01-06 15:21:00,46.9,35.0,30.00,North,0,0.0,0.0,63,0.00,BKN,,0.00,WeatherDisplay:10.37,2013-01-06 23:21:00,
2013-01-06 15:26:00,46.1,34.2,30.01,North,0,0.0,0.0,63,0.00,BKN,,0.00,WeatherDisplay:10.37,2013-01-06 23:26:00,
2013-01-06 15:36:00,45.4,33.9,30.00,North,0,0.0,0.0,64,0.00,BKN,,0.00,WeatherDisplay:10.37,2013-01-06 23:36:00,
2013-01-06 15:41:00,45.0,33.9,30.00,North,0,0.0,0.0,65,0.00,BKN,,0.00,WeatherDisplay:10.37,2013-01-06 23:41:00,
2013-01-06 15:51:00,44.4,33.8,30.00,North,0,0.0,0.0,66,0.00,BKN,,0.00,WeatherDisplay:10.37,2013-01-06 23:51:00,
2013-01-06 15:56:00,44.1,34.2,30.00,North,0,0.0,0.0,68,0.00,BKN,,0.00,WeatherDisplay:10.37,2013-01-06 23:56:00,
2013-01-06 16:06:00,43.7,33.8,30.01,North,0,0.0,0.0,68,0.00,BKN,,0.00,WeatherDisplay:10.37,2013-01-07 00:06:00,
2013-01-06 16:21:00,43.3,34.2,30.00,North,0,0.0,0.0,70,0.00,BKN,,0.00,WeatherDisplay:10.37,2013-01-07 00:21:00,
2013-01-06 16:26:00,43.3,34.6,30.00,North,0,0.0,0.0,71,0.00,BKN,,0.00,WeatherDisplay:10.37,2013-01-07 00:26:00,
2013-01-06 16:36:00,43.2,34.0,30.00,North,0,0.0,0.0,70,0.00,BKN,,0.00,WeatherDisplay:10.37,2013-01-07 00:36:00,
2013-01-06 16:41:00,43.0,34.2,29.99,North,0,0.0,0.0,71,0.00,BKN,,0.00,WeatherDisplay:10.37,2013-01-07 00:41:00,
2013-01-06 16:51:00,43.0,34.6,29.99,North,0,0.0,0.0,72,0.00,BKN,,0.00,WeatherDisplay:10.37,2013-01-07 00:51:00,
2013-01-06 17:06:00,42.8,34.4,29.99,North,0,0.0,0.0,72,0.00,BKN,,0.00,WeatherDisplay:10.37,2013-01-07 01:06:00,
2013-01-06 17:21:00,42.6,35.6,29.99,North,0,0.0,0.0,76,0.00,BKN,,0.00,WeatherDisplay:10.37,2013-01-07 01:21:00,
2013-01-06 17:36:00,42.3,35.9,29.99,North,0,0.0,0.0,78,0.00,-RA,,0.00,WeatherDisplay:10.37,2013-01-07 01:36:00,
2013-01-06 17:41:00,42.1,35.7,29.99,North,0,0.0,0.0,78,0.00,-RA,,0.00,WeatherDisplay:10.37,2013-01-07 01:41:00,
2013-01-06 17:51:00,42.1,36.0,29.99,North,0,0.0,0.0,79,0.00,BKN,,0.00,WeatherDisplay:10.37,2013-01-07 01:51:00,
2013-01-06 17:56:00,41.9,35.9,29.99,North,0,0.0,0.0,79,0.00,BKN,,0.00,WeatherDisplay:10.37,2013-01-07 01:56:00,
2013-01-06 18:06:00,41.7,36.0,29.98,North,0,0.0,0.0,80,0.00,BKN,,0.00,WeatherDisplay:10.37,2013-01-07 02:06:00,
2013-01-06 18:11:00,41.7,36.3,29.98,North,0,0.0,0.0,81,0.00,BKN,,0.00,WeatherDisplay:10.37,2013-01-07 02:11:00,
2013-01-06 18:21:00,40.5,36.6,29.98,North,0,0.0,0.0,86,0.00,BKN,,0.00,WeatherDisplay:10.37,2013-01-07 02:21:00,
2013-01-06 18:26:00,40.1,36.2,29.98,North,0,0.0,0.0,86,0.00,OVC,,0.00,WeatherDisplay:10.37,2013-01-07 02:26:00,
2013-01-06 18:35:00,39.7,35.6,29.98,North,0,0.0,0.0,85,0.00,OVC,,0.01,WeatherDisplay:10.37,2013-01-07 02:35:00,
2013-01-06 18:40:00,39.4,35.5,29.99,North,0,0.0,0.0,86,0.01,RA,,0.02,WeatherDisplay:10.37,2013-01-07 02:40:00,
2013-01-06 18:50:00,38.7,35.2,29.99,North,0,0.0,0.0,87,0.02,RA,,0.05,WeatherDisplay:10.37,2013-01-07 02:50:00,
2013-01-06 18:55:00,38.5,35.2,29.99,North,0,0.0,0.0,88,0.00,OVC,,0.05,WeatherDisplay:10.37,2013-01-07 02:55:00,
2013-01-06 19:05:00,38.1,34.9,29.99,North,0,0.0,0.0,88,0.01,OVC,,0.08,WeatherDisplay:10.37,2013-01-07 03:05:00,
2013-01-06 19:10:00,38.1,35.2,29.98,North,0,0.0,0.0,89,0.01,RA,,0.08,WeatherDisplay:10.37,2013-01-07 03:10:00,
2013-01-06 19:20:00,38.1,35.4,29.98,North,0,0.0,0.0,90,0.01,SCT,,0.09,WeatherDisplay:10.37,2013-01-07 03:20:00,
2013-01-06 19:35:00,38.3,35.1,29.98,North,0,0.0,0.0,88,0.00,BKN,,0.09,WeatherDisplay:10.37,2013-01-07 03:35:00,
2013-01-06 19:40:00,38.3,34.8,29.98,North,0,0.0,0.0,87,0.00,BKN,,0.09,WeatherDisplay:10.37,2013-01-07 03:40:00,
2013-01-06 19:50:00,38.5,35.2,29.97,North,0,0.0,0.0,88,0.01,BKN,,0.10,WeatherDisplay:10.37,2013-01-07 03:50:00,
2013-01-06 19:55:00,38.3,35.7,29.97,North,0,0.0,0.0,90,0.00,BKN,,0.10,WeatherDisplay:10.37,2013-01-07 03:55:00,
2013-01-06 20:05:00,37.9,35.5,29.97,North,0,0.0,0.0,91,0.00,BKN,,0.10,WeatherDisplay:10.37,2013-01-07 04:05:00,
2013-01-06 20:10:00,38.1,35.4,29.97,North,0,0.0,0.0,90,0.00,BKN,,0.10,WeatherDisplay:10.37,2013-01-07 04:10:00,
2013-01-06 20:20:00,38.1,35.4,29.97,North,0,0.0,0.0,90,0.00,OVC,,0.10,WeatherDisplay:10.37,2013-01-07 04:20:00,
2013-01-06 20:35:00,38.0,35.9,29.97,North,0,0.0,0.0,92,0.00,OVC,,0.10,WeatherDisplay:10.37,2013-01-07 04:35:00,
2013-01-06 20:40:00,38.1,35.4,29.97,North,0,0.0,0.0,90,0.00,OVC,,0.10,WeatherDisplay:10.37,2013-01-07 04:40:00,
2013-01-06 20:50:00,38.1,35.4,29.96,North,0,0.0,0.0,90,0.01,-RA,,0.11,WeatherDisplay:10.37,2013-01-07 04:50:00,
2013-01-06 20:55:00,38.1,35.4,29.96,North,0,0.0,0.0,90,0.00,-RA,,0.11,WeatherDisplay:10.37,2013-01-07 04:55:00,
2013-01-06 21:05:00,38.3,35.9,29.97,North,0,0.0,0.0,91,0.00,-RA,,0.11,WeatherDisplay:10.37,2013-01-07 05:05:00,
2013-01-06 21:10:00,38.3,35.9,29.97,North,0,0.0,0.0,91,0.00,-RA,,0.11,WeatherDisplay:10.37,2013-01-07 05:10:00,
2013-01-06 21:20:00,38.3,35.9,29.97,North,0,0.0,0.0,91,0.00,-RA,,0.11,WeatherDisplay:10.37,2013-01-07 05:20:00,
2013-01-06 21:25:00,38.3,36.5,29.96,North,0,0.0,0.0,93,0.00,-RA,,0.11,WeatherDisplay:10.37,2013-01-07 05:25:00,
2013-01-06 21:35:00,38.1,36.0,29.96,North,0,0.0,0.0,92,0.00,-RA,,0.11,WeatherDisplay:10.37,2013-01-07 05:35:00,
2013-01-06 21:40:00,38.3,35.6,29.96,North,0,0.0,0.0,90,0.01,-RA,,0.12,WeatherDisplay:10.37,2013-01-07 05:40:00,
2013-01-06 21:50:00,38.3,35.9,29.96,North,0,0.0,0.0,91,0.00,OVC,,0.12,WeatherDisplay:10.37,2013-01-07 05:50:00,
2013-01-06 21:55:00,38.3,35.6,29.96,North,0,0.0,0.0,90,0.00,OVC,,0.12,WeatherDisplay:10.37,2013-01-07 05:55:00,
2013-01-06 22:05:00,38.5,35.5,29.95,North,0,0.0,0.0,89,0.00,OVC,,0.12,WeatherDisplay:10.37,2013-01-07 06:05:00,
2013-01-06 22:10:00,38.5,35.5,29.95,North,0,0.0,0.0,89,0.00,OVC,,0.12,WeatherDisplay:10.37,2013-01-07 06:10:00,
2013-01-06 22:20:00,38.5,35.2,29.95,North,0,0.0,0.0,88,0.00,OVC,,0.12,WeatherDisplay:10.37,2013-01-07 06:20:00,
2013-01-06 22:25:00,38.5,35.2,29.95,North,0,0.0,0.0,88,0.00,OVC,,0.12,WeatherDisplay:10.37,2013-01-07 06:25:00,
2013-01-06 22:35:00,38.1,34.9,29.95,North,0,0.0,0.0,88,0.00,OVC,,0.12,WeatherDisplay:10.37,2013-01-07 06:35:00,
2013-01-06 22:40:00,38.1,34.9,29.95,North,0,0.0,0.0,88,0.01,RA,,0.13,WeatherDisplay:10.37,2013-01-07 06:40:00,
2013-01-06 22:50:00,37.8,34.8,29.95,North,0,0.0,0.0,89,0.00,OVC,,0.13,WeatherDisplay:10.37,2013-01-07 06:50:00,
2013-01-06 22:55:00,37.6,34.9,29.95,North,0,0.0,0.0,90,0.00,BKN,,0.13,WeatherDisplay:10.37,2013-01-07 06:55:00,
2013-01-06 23:05:00,37.8,35.1,29.95,North,0,0.0,0.0,90,0.00,BKN,,0.13,WeatherDisplay:10.37,2013-01-07 07:05:00,
2013-01-06 23:10:00,37.8,35.1,29.95,North,0,0.0,0.0,90,0.00,BKN,,0.13,WeatherDisplay:10.37,2013-01-07 07:10:00,
2013-01-06 23:20:00,37.8,35.1,29.94,North,0,0.0,0.0,90,0.00,BKN,,0.13,WeatherDisplay:10.37,2013-01-07 07:20:00,
2013-01-06 23:25:00,37.6,34.9,29.95,North,0,0.0,0.0,90,0.00,BKN,,0.13,WeatherDisplay:10.37,2013-01-07 07:25:00,
2013-01-06 23:35:00,37.0,34.4,29.95,North,0,0.0,0.0,90,0.00,BKN,,0.13,WeatherDisplay:10.37,2013-01-07 07:35:00,
2013-01-06 23:40:00,37.0,34.1,29.94,North,0,0.0,0.0,89,0.00,BKN,,0.13,WeatherDisplay:10.37,2013-01-07 07:40:00,
2013-01-06 23:50:00,37.0,34.7,29.94,North,0,0.0,0.0,91,0.00,BKN,,0.13,WeatherDisplay:10.37,2013-01-07 07:50:00,
2013-01-06 23:55:00,37.2,35.1,29.94,North,0,0.0,0.0,92,0.00,BKN,,0.13,WeatherDisplay:10.37,2013-01-07 07:55:00,